CAPE
0 0 0 0 0 0 0 0 0 0 134 140 42 22 0 195 259 230 257 256 247 145 185 422 630 774 839 927 1372 1764 2230 2403 1940 1545 1352 881 507 51 0 0 0 0 0 0
0 0 0 0 0 0 0 0 0 3 0 28 8 0 0 5 139 183 258 296 468 559 610 705 1372 1327 1430 1516 1731 2323 2444 2196 1946 1542 1204 680 114 0 0 0 0 0 0 0
0 0 0 0 0 0 0 0 0 0 0 0 0 0 0 0 6 78 223 286 394 679 983 1514 1710 1857 2003 2063 2285 2600 2423 2314 1734 1419 656 24 0 0 0 0 0 0 0 0
0 0 0 0 0 0 0 0 0 0 0 0 0 0 0 0 0 0 135 336 366 610 897 1444 1989 2128 2308 2443 2520 2666 2230 1212 899 436 27 0 0 0 0 0 0 0 0 0
0 0 0 0 0 0 0 0 0 0 0 0 0 0 0 0 0 0 82 147 318 408 895 1265 1825 2232 2413 2593 2482 1721 974 682 593 247 1 0 0 0 0 0 0 0 0 0
0 0 0 0 0 0 0 0 0 0 0 0 0 0 0 0 0 0 0 21 159 478 746 1231 1660 2195 2386 2054 1320 967 175 39 51 116 66 6 0 0 0 0 0 0 0 0
0 0 0 0 0 0 0 0 0 0 0 0 0 0 0 0 0 0 0 0 21 324 697 1197 1760 2221 2338 1159 1001 10 0 0 0 1 28 0 0 0 0 0 0 0 0 0
0 0 0 0 0 0 0 0 0 0 0 0 0 0 0 0 0 0 0 12 149 219 272 1039 1631 2230 1951 798 578 14 218 0 0 47 0 0 0 0 0 0 0 0 0 0
0 0 0 0 0 0 0 0 0 0 0 0 0 0 0 0 0 0 0 0 9 215 228 305 1431 2132 1882 931 737 368 166 6 10 37 151 1 0 0 0 0 0 0 0 5
0 0 0 0 0 0 0 0 0 0 0 0 0 0 0 0 0 0 0 0 0 646 527 611 1251 2057 1902 1154 1295 629 304 64 18 221 533 191 0 0 0 0 0 0 5 2
0 0 0 0 0 0 0 0 0 0 0 0 0 0 1 0 0 0 0 0 0 398 734 1027 1241 1506 1528 1169 1238 583 549 344 151 615 601 161 2 0 0 0 0 3 7 4
0 0 0 0 0 0 0 0 0 0 0 0 0 0 0 0 0 0 0 0 0 377 760 1075 1362 1326 1423 1443 1363 1178 862 320 229 446 400 65 0 0 0 0 2 14 8 0
0 0 0 0 0 0 0 0 0 0 0 0 0 0 0 0 0 0 0 0 0 516 1097 1234 1359 1394 1477 1579 1456 1234 1060 405 177 124 46 0 0 0 4 8 10 4 0 0
0 0 0 0 0 0 0 0 0 0 0 0 0 0 0 0 0 0 0 0 0 9 675 1062 1161 1239 1321 1625 1568 1271 907 289 37 0 0 0 0 0 4 5 0 0 0 0
0 0 0 0 0 0 0 0 0 0 0 0 0 0 9 0 0 0 0 0 29 44 64 309 882 1020 1135 1320 1589 1221 773 156 0 0 0 0 0 2 3 0 0 0 0 0
0 0 0 0 0 0 0 0 0 0 0 0 0 0 0 0 0 0 0 0 0 0 0 0 0 29 869 1017 1197 1217 792 109 0 0 0 2 3 3 1 0 0 0 0 0
0 0 0 0 0 0 0 0 0 0 0 0 0 0 0 3 0 0 0 0 0 0 0 0 0 19 186 876 939 1043 662 109 0 0 0 11 6 0 0 0 0 0 0 0
0 0 0 0 0 0 0 0 0 0 0 0 0 0 0 0 0 0 0 0 0 0 0 11 1 25 224 624 657 728 406 36 3 3 9 8 0 1 0 0 0 0 0 0
0 0 0 0 0 0 0 0 0 0 0 0 0 0 0 0 0 0 0 0 0 0 121 239 189 130 411 445 387 346 170 1 6 7 8 7 3 2 0 0 0 0 0 0
0 0 0 0 5 0 0 0 0 0 0 0 0 0 0 0 0 0 8 0 39 244 382 328 123 100 171 149 188 168 37 4 1 4 8 12 3 0 0 0 0 0 0 0
7 1 4 1 0 0 0 1 3 0 0 7 0 0 0 0 2 18 0 0 154 280 276 161 104 129 162 75 113 108 16 2 1 1 3 7 1 0 0 0 0 0 0 0
1 11 13 12 15 0 6 1 0 16 33 12 6 2 0 0 0 0 0 24 109 263 114 93 109 102 63 48 30 30 4 14 2 0 2 0 0 0 0 0 0 0 0 0
0 0 6 13 23 84 85 35 77 51 21 7 10 0 11 0 0 0 13 57 76 135 202 30 2 0 1 1 3 3 2 0 0 0 0 0 0 0 0 0 0 0 0 0
1 0 1 0 0 2 11 64 57 55 48 19 10 9 7 18 15 11 31 93 71 77 17 0 1 1 3 4 3 1 1 0 0 1 3 1 0 0 0 0 0 0 0 0
7 0 1 4 1 60 74 78 12 0 0 0 0 0 0 0 0 0 5 20 41 42 18 1 2 3 3 3 3 0 0 0 2 2 0 0 0 0 0 0 0 0 0 0
0 0 2 7 2 1 7 1 0 0 0 0 0 0 0 0 0 0 0 0 17 49 43 20 9 1 1 0 1 2 2 1 1 0 1 0 0 0 0 0 0 0 0 0
CIN
-0 -0 -0 -0 -0 -0 -0 -0 -0 -0 -23 -18 -17 -8 -0 -34 -52 -47 -44 -61 -71 -75 -65 -80 -92 -91 -98 -114 -129 -139 -94 -81 -104 -120 -128 -165 -200 -289 -0 -0 -0 -0 -0 -0
-0 -0 -0 -0 -0 -0 -0 -0 -0 -5 -0 -36 -5 -0 -0 -4 -38 -36 -33 -46 -55 -72 -79 -87 -103 -106 -125 -136 -153 -87 -69 -115 -106 -134 -129 -207 -296 -0 -0 -0 -0 -0 -0 -0
-0 -0 -0 -0 -0 -0 -0 -0 -0 -0 -0 -0 -0 -0 -0 -0 -14 -48 -53 -44 -50 -61 -63 -93 -127 -125 -124 -129 -99 -39 -70 -60 -99 -98 -184 -172 -0 -0 -0 -0 -0 -0 -0 -0
-0 -0 -0 -0 -0 -0 -0 -0 -0 -0 -0 -0 -0 -0 -0 -0 -0 -0 -51 -51 -60 -55 -77 -63 -129 -137 -121 -67 -31 -26 -40 -119 -128 -184 -265 -0 -0 -0 -0 -0 -0 -0 -0 -0
-0 -0 -0 -0 -0 -0 -0 -0 -0 -0 -0 -0 -0 -0 -0 -0 -0 -0 -28 -36 -42 -46 -70 -86 -87 -113 -95 -35 -42 -150 -191 -187 -158 -201 -16 -0 -0 -0 -0 -0 -0 -0 -0 -0
-0 -0 -0 -0 -0 -0 -0 -0 -0 -0 -0 -0 -0 -0 -0 -0 -0 -0 -0 -12 -28 -26 -44 -65 -75 -62 -65 -98 -244 -233 -433 -497 -322 -199 -259 -502 -0 -0 -0 -0 -0 -0 -0 -0
-0 -0 -0 -0 -0 -0 -0 -0 -0 -0 -0 -0 -0 -0 -0 -0 -0 -0 -0 -0 -2 -11 -27 -53 -85 -55 -50 -287 -322 -240 -0 -0 -0 -31 -387 -0 -0 -0 -0 -0 -0 -0 -0 -0
-0 -0 -0 -0 -0 -0 -0 -0 -0 -0 -0 -0 -0 -0 -0 -0 -0 -0 -0 -42 -34 -45 -33 -36 -81 -51 -150 -371 -408 -599 -385 -0 -0 -472 -57 -0 -0 -0 -0 -0 -0 -0 -0 -0
-0 -0 -0 -0 -0 -0 -0 -0 -0 -0 -0 -0 -0 -0 -0 -0 -0 -0 -0 -0 -38 -28 -61 -61 -70 -67 -128 -301 -305 -369 -352 -238 -480 -392 -240 -20 -0 -0 -0 -0 -0 -0 -0 -0
-0 -0 -0 -0 -0 -0 -0 -0 -0 -0 -0 -0 -0 -0 -0 -0 -0 -0 -0 -0 -0 -36 -61 -68 -80 -110 -141 -224 -169 -249 -409 -434 -455 -309 -191 -287 -0 -0 -0 -0 -0 -0 -0 -0
-0 -0 -0 -0 -0 -0 -0 -0 -0 -0 -0 -0 -0 -0 -2 -0 -0 -0 -0 -0 -0 -16 -38 -78 -109 -178 -204 -221 -182 -261 -290 -335 -372 -192 -194 -270 -37 -0 -0 -0 -0 -0 -0 -0
-0 -0 -0 -0 -0 -0 -0 -0 -0 -0 -0 -0 -0 -0 -0 -0 -0 -0 -0 -0 -0 -22 -34 -56 -94 -179 -227 -205 -178 -184 -202 -307 -321 -230 -212 -283 -37 -0 -0 -0 -1 -7 -0 -0
-0 -0 -0 -0 -0 -0 -0 -0 -0 -0 -0 -0 -0 -0 -0 -0 -0 -0 -0 -0 -0 -27 -53 -76 -103 -150 -174 -186 -187 -207 -212 -291 -327 -340 -307 -0 -0 -0 -1 -1 -0 -1 -0 -0
-0 -0 -0 -0 -0 -0 -0 -0 -0 -0 -0 -0 -0 -0 -0 -1 -0 -0 -0 -0 -0 -17 -29 -53 -89 -115 -177 -166 -171 -217 -247 -311 -377 -0 -0 -0 -0 -0 -1 -0 -0 -0 -0 -0
-0 -0 -0 -0 -0 -0 -0 -0 -0 -0 -0 -0 -0 -0 -4 -0 -0 -0 -0 -0 -33 -38 -43 -32 -45 -54 -96 -163 -163 -211 -250 -354 -0 -0 -0 -0 -0 -1 -0 -0 -0 -0 -0 -0
-0 -0 -0 -0 -0 -0 -0 -0 -0 -0 -0 -0 -0 -0 -0 -0 -0 -0 -0 -0 -0 -0 -0 -0 -0 -51 -60 -114 -195 -184 -235 -359 -0 -0 -0 -1 -1 -1 -0 -0 -0 -0 -0 -0
-0 -0 -0 -0 -0 -0 -0 -0 -0 -0 -0 -0 -0 -0 -0 -5 -0 -0 -0 -0 -0 -0 -0 -0 -0 -135 -116 -110 -171 -205 -257 -335 -0 -0 -0 -1 -0 -0 -0 -0 -0 -0 -0 -0
-0 -0 -0 -0 -0 -0 -0 -0 -0 -0 -0 -0 -0 -0 -0 -0 -0 -0 -0 -0 -0 -0 -0 -70 -23 -140 -148 -164 -204 -228 -249 -348 -1 -1 -1 -1 -0 -0 -0 -0 -0 -0 -0 -0
-0 -0 -0 -0 -0 -0 -0 -0 -0 -0 -0 -0 -0 -0 -0 -0 -0 -0 -0 -0 -0 -0 -117 -134 -177 -170 -176 -204 -258 -317 -320 -36 -1 -1 -1 -1 -0 -0 -0 -0 -0 -0 -0 -0
-0 -0 -0 -0 -2 -0 -0 -0 -0 -0 -0 -0 -0 -0 -0 -0 -0 -0 -35 -0 -120 -111 -142 -170 -239 -280 -295 -313 -345 -317 -365 -0 -1 -1 -1 -1 -0 -0 -0 -0 -0 -0 -0 -0
-3 -1 -3 -1 -0 -0 -2 -2 -3 -0 -0 -7 -0 -0 -0 -0 -5 -42 -0 -0 -123 -139 -172 -234 -255 -231 -288 -323 -309 -270 -301 -54 -0 -1 -1 -0 -0 -0 -0 -0 -0 -0 -0 -0
-1 -8 -2 -4 -3 -0 -5 -2 -0 -8 -51 -43 -32 -13 -0 -0 -0 -0 -0 -88 -98 -123 -208 -232 -237 -253 -315 -320 -300 -249 -266 -232 -4 -0 -0 -0 -0 -0 -0 -0 -0 -0 -0 -0
-0 -2 -4 -1 -4 -8 -26 -9 -45 -66 -57 -43 -66 -0 -71 -0 -0 -0 -68 -77 -104 -129 -161 -270 -32 -0 -0 -0 -0 -0 -0 -0 -0 -0 -0 -0 -0 -0 -0 -0 -0 -0 -0 -0
-3 -0 -0 -0 -0 -3 -11 -26 -65 -65 -62 -71 -86 -90 -89 -68 -86 -94 -84 -92 -129 -161 -202 -0 -0 -0 -0 -0 -0 -0 -0 -0 -0 -0 -0 -0 -0 -0 -0 -0 -0 -0 -0 -0
-4 -0 -1 -3 -1 -11 -27 -10 -28 -0 -0 -0 -0 -0 -0 -0 -0 -0 -108 -113 -120 -143 -197 -0 -0 -0 -0 -0 -0 -0 -0 -0 -0 -0 -0 -0 -0 -0 -0 -0 -0 -0 -0 -0
-0 -0 -0 -0 -9 -3 -4 -7 -0 -0 -0 -0 -0 -0 -0 -0 -0 -0 -0 -0 -87 -113 -145 -184 -176 -0 -0 -0 -0 -0 -0 -0 -0 -0 -0 -0 -0 -0 -0 -0 -0 -0 -0 -0
Wind_Speed
9 15 12 15 17 26 25 18 11 4 7 9 13 8 11 4 5 6 5 8 9 11 10 10 10 11 9 8 8 6 4 2 2 4 5 8 8 9 12 13 13 13 13 14
13 10 14 19 17 18 18 7 5 4 10 2 7 11 14 5 10 8 7 9 9 9 8 8 9 8 7 5 4 2 1 2 1 4 7 7 10 12 12 12 12 12 12 14
20 18 16 13 15 18 15 12 8 12 11 8 19 18 14 16 18 12 13 14 9 10 7 6 8 6 4 3 3 3 2 3 7 8 11 9 9 10 10 10 10 10 11 13
22 18 15 15 14 16 19 9 15 12 14 14 4 7 7 8 3 8 11 13 17 13 8 7 7 6 5 4 4 3 4 7 12 11 9 5 6 6 7 7 9 9 10 12
19 16 15 16 15 14 23 18 14 14 15 21 14 16 15 13 11 6 7 11 14 13 9 8 8 7 5 3 2 0 2 4 10 13 5 3 4 7 6 7 8 8 9 11
25 17 14 13 17 16 17 19 19 18 20 20 15 15 14 9 9 15 8 6 9 11 11 9 8 7 6 3 3 2 1 3 2 12 6 2 2 4 4 6 8 6 7 9
19 19 16 18 18 15 15 13 19 20 21 26 22 21 18 25 23 25 29 26 15 16 13 12 11 10 9 7 8 8 4 3 10 4 7 4 1 4 6 7 7 6 6 8
21 20 14 12 16 16 13 14 19 20 24 26 16 23 21 20 24 18 17 19 20 20 23 13 12 11 10 10 13 12 8 12 13 6 7 8 5 7 8 8 6 5 5 7
20 22 17 17 15 18 15 21 21 30 24 27 23 17 22 16 16 14 16 18 20 22 21 15 9 9 8 8 12 11 8 10 4 5 9 9 9 8 7 7 5 4 5 7
21 27 19 16 14 16 20 14 20 21 27 27 25 21 20 13 12 12 12 15 18 19 18 14 8 5 7 7 10 9 7 8 3 4 9 8 8 8 7 7 5 3 4 7
19 19 19 15 17 20 18 21 23 27 28 30 29 26 17 17 14 12 12 16 19 16 14 11 8 2 3 6 9 9 6 5 4 8 7 6 7 8 7 6 5 3 3 6
13 20 22 22 21 21 25 23 22 25 24 24 30 34 20 18 15 12 14 16 17 15 13 11 9 5 2 5 9 10 7 5 5 7 7 7 7 6 6 5 2 2 3 6
14 20 26 22 18 19 21 21 24 27 29 30 33 29 17 16 18 16 17 19 18 14 12 12 11 8 5 4 7 9 10 8 7 7 7 7 7 6 6 3 1 1 5 8
21 23 23 29 26 21 16 20 21 23 31 32 29 29 25 17 19 20 19 21 22 17 14 12 11 10 9 7 8 8 9 9 8 8 8 7 8 8 5 3 2 2 8 7
25 30 26 28 32 31 30 30 25 25 30 34 37 36 30 28 30 23 24 23 22 20 19 17 17 15 13 11 10 10 10 11 11 10 9 8 8 7 5 4 2 6 5 6
26 35 31 38 32 32 35 31 32 35 31 36 38 40 39 35 28 24 23 23 24 25 26 26 26 23 18 14 12 11 12 13 12 12 11 9 8 7 6 4 3 3 5 5
33 34 34 41 32 38 48 37 36 37 33 34 38 36 32 25 25 29 30 28 28 29 29 29 27 25 21 16 13 13 13 12 13 14 12 11 9 7 6 5 4 6 5 6
38 35 36 45 37 42 37 32 35 36 36 35 37 36 37 32 33 31 26 27 25 25 26 26 26 25 21 15 11 8 9 11 12 13 13 11 9 8 6 5 4 2 4 7
34 37 41 42 42 44 35 27 28 31 38 30 33 32 28 28 28 30 27 26 26 28 27 25 25 24 19 14 9 7 7 8 11 12 11 11 10 9 7 5 4 3 3 7
34 33 38 40 42 47 43 35 27 29 50 33 34 31 32 32 34 30 19 20 22 23 23 22 20 18 16 12 8 7 7 8 10 11 10 9 9 9 8 5 4 3 5 7
32 36 39 41 45 49 36 29 23 33 37 25 25 26 28 27 27 25 24 24 23 22 21 20 18 17 15 12 8 7 7 8 8 7 7 7 7 7 7 4 4 3 4 7
43 32 37 39 43 50 26 25 32 32 25 22 21 22 23 23 24 24 24 23 22 22 21 20 18 17 15 13 11 10 9 6 5 5 5 4 5 5 5 3 3 2 5 6
50 47 44 36 36 27 21 25 22 24 26 25 26 26 25 25 25 24 25 24 24 23 21 20 19 18 17 14 12 9 6 2 3 3 2 3 2 3 3 3 2 3 5 5
42 43 48 44 39 35 29 25 24 23 23 24 24 24 24 26 26 27 27 26 25 23 22 21 20 19 17 14 9 6 2 1 1 2 2 4 4 6 4 4 4 5 5 5
33 33 36 43 43 34 29 25 23 27 27 27 26 26 27 28 29 29 30 30 26 23 22 20 19 18 15 10 7 2 0 1 1 3 4 5 7 7 2 6 6 6 4 5
35 39 37 36 31 34 34 31 31 34 34 33 34 35 32 32 32 31 29 26 23 20 18 18 17 15 11 6 4 1 2 3 5 5 8 7 5 2 1 2 3 6 3 6
Wind_Direction
299 283 278 281 284 271 266 176 166 153 336 160 174 166 175 122 119 159 158 162 171 175 175 174 172 170 168 166 164 162 146 127 88 355 349 356 10 27 20 20 22 25 30 33
294 272 283 287 290 290 279 273 208 303 320 300 180 192 193 177 190 190 191 178 180 179 181 184 180 182 184 189 196 219 246 175 282 336 341 348 359 9 19 32 31 32 34 34
279 293 287 284 285 283 285 281 278 284 311 312 301 244 208 205 202 196 198 195 195 191 198 207 193 196 203 242 270 287 290 308 319 325 324 346 359 19 22 37 42 31 33 31
284 284 291 282 270 280 280 283 288 289 300 302 250 296 314 314 217 195 199 200 197 197 215 224 222 221 246 276 290 302 331 331 315 313 325 1 358 30 47 60 46 49 39 36
290 288 276 282 282 272 274 283 278 284 289 295 303 305 309 319 314 282 218 200 205 208 222 225 238 237 247 254 279 352 349 355 326 310 339 14 8 11 49 63 75 57 49 34
281 302 288 285 293 286 287 283 282 283 285 279 285 291 300 299 315 312 303 255 237 261 267 247 238 237 228 257 203 158 73 323 53 310 177 184 324 13 77 93 93 77 52 36
285 282 285 286 284 291 285 275 279 279 274 284 290 289 299 300 307 300 292 294 293 287 280 272 253 240 234 240 211 189 176 321 317 241 179 198 158 119 122 116 110 96 56 36
286 284 272 282 275 284 274 267 274 284 285 287 299 294 303 310 304 309 310 306 304 303 296 283 264 243 242 250 217 210 231 307 319 159 176 171 151 140 134 138 114 100 55 38
291 287 303 287 283 283 286 277 285 282 292 292 296 311 311 312 315 316 311 312 313 310 311 307 283 241 239 239 211 220 250 314 340 158 163 160 155 144 139 136 115 83 46 30
290 284 294 299 288 286 285 303 284 281 283 286 296 299 308 324 316 319 320 319 320 323 321 321 311 258 229 225 202 215 263 295 275 184 162 157 156 152 142 138 137 101 40 14
287 291 293 298 281 275 282 282 284 285 286 287 291 296 308 308 312 316 320 322 322 327 330 339 342 327 197 197 194 210 242 277 247 179 172 164 160 161 154 152 146 118 44 12
294 293 288 284 291 285 282 283 286 282 287 292 290 285 314 311 307 309 313 318 324 321 325 332 343 346 281 197 194 203 214 210 194 184 181 179 174 170 170 169 152 88 17 5
297 290 284 289 293 292 284 280 279 284 286 285 289 294 306 305 298 302 303 308 312 317 315 316 322 324 309 253 211 209 215 217 206 195 189 185 183 184 184 183 166 85 335 342
290 284 282 281 288 305 291 286 280 279 282 288 286 292 293 301 299 297 298 300 304 306 305 305 310 310 305 275 239 236 229 224 216 206 202 201 194 188 188 197 173 335 327 341
282 276 279 282 283 286 286 286 285 283 284 282 284 285 292 291 293 295 296 300 302 302 302 304 305 305 297 286 263 246 235 224 213 208 207 204 194 195 200 191 184 336 326 347
282 276 279 278 281 281 282 282 282 282 284 284 284 281 283 286 293 295 298 300 298 298 300 302 304 305 299 287 275 254 241 230 220 214 214 203 199 206 204 234 280 335 333 359
279 279 275 276 281 282 275 277 280 281 281 283 282 285 293 290 291 292 293 296 297 299 302 305 307 309 306 293 274 257 242 231 226 221 213 213 212 218 227 256 293 302 308 2
273 277 276 275 281 271 281 287 281 281 281 282 283 286 286 290 293 295 297 298 299 303 306 308 309 311 313 311 294 274 245 229 227 223 222 222 219 224 241 260 292 212 347 349
267 270 274 272 272 276 279 284 284 282 280 284 284 288 291 294 296 294 296 296 299 303 306 309 311 310 312 312 302 280 260 240 229 226 227 225 222 219 219 241 238 257 332 344
263 264 266 269 271 271 279 281 282 286 277 285 287 287 288 291 289 298 310 308 309 310 313 315 318 320 319 317 311 288 265 241 232 225 225 220 221 214 220 228 218 221 329 347
268 261 260 265 268 273 279 290 291 273 285 297 293 290 292 290 295 302 307 308 310 312 316 320 321 321 323 322 313 292 268 253 238 227 225 220 220 220 211 218 191 259 327 352
265 270 263 266 267 270 284 280 271 288 295 295 298 299 299 300 300 303 306 307 309 311 314 317 319 321 324 322 315 299 283 272 239 205 201 218 224 213 193 223 225 291 352 11
262 263 268 270 269 285 287 281 291 290 289 292 295 298 299 300 301 303 304 307 310 310 310 314 314 314 317 317 315 301 299 266 200 193 228 223 194 184 200 219 197 320 1 21
271 269 266 269 266 273 281 285 290 292 294 296 300 300 301 300 303 303 304 305 305 306 306 309 310 310 312 316 317 315 306 187 196 206 178 164 153 153 182 279 283 349 339 8
275 281 270 268 268 275 276 278 284 289 293 295 298 298 297 301 301 302 303 304 303 303 303 304 305 307 307 309 313 316 308 163 168 153 150 153 136 139 205 288 312 311 4 56
273 270 274 271 281 278 274 282 285 286 287 290 291 292 294 298 299 301 303 307 308 307 307 305 305 306 302 296 292 235 195 163 150 137 136 137 158 163 230 330 333 333 16 60